1508536800.42,61847,16.25,73978.8,-0.01,-30.45,-32.79,0,*50
1508536801.69,61848,16.25,73978.8,-0.01,-30.61,-32.79,0,*59
1508536802.94,61849,16.25,73978.0,-0.01,-30.45,-32.75,0,*52
1508536804.18,61850,16.25,73976.0,-0.01,-30.45,-32.63,0,*5D
1508536805.42,61851,16.25,73978.8,-0.03,-30.51,-32.79,0,*50
1508536806.66,61852,16.25,73974.8,-0.03,-30.55,-32.79,0,*57
1508536807.87,61853,16.25,73976.0,-0.03,-30.33,-32.63,0,*5D
1508536809.09,61854,16.25,73976.3,-0.01,-30.27,-32.57,0,*5A
1508536810.3,61855,16.25,73978.3,-0.03,-30.39,-32.69,0,*5B
1508536811.49,61856,16.25,73982.3,-0.03,-30.27,-32.57,0,*5A
1508536812.73,61857,16.25,73982.5,-0.03,-30.39,-32.45,0,*57
1508536813.97,61858,16.25,73980.0,-0.03,-30.39,-32.79,0,*57
1508536815.21,61859,16.25,73978.3,-0.03,-30.55,-32.79,0,*5C
1508536816.44,61860,16.25,73982.3,-0.01,-30.45,-32.63,0,*5E
1508536817.66,61861,16.25,73982.8,-0.01,-30.27,-32.57,0,*5C
1508536818.9,61862,16.25,73980.5,-0.03,-30.55,-32.85,0,*57
1508536820.14,61863,16.25,73980.5,-0.03,-30.55,-32.85,0,*56
1508536821.38,61864,16.25,73980.0,-0.03,-30.51,-32.79,0,*56
1508536822.62,61865,16.25,73982.0,-0.03,-30.77,-32.97,0,*53
1508536823.85,61866,16.25,73980.8,-0.03,-30.67,-32.85,0,*52
1508536825.12,61867,16.25,73982.3,-0.05,-30.51,-32.85,0,*50
1508536826.38,61868,16.25,73980.3,-0.05,-30.77,-32.97,0,*58
1508536827.61,61869,16.25,73982.3,-0.07,-30.73,-32.91,0,*59
1508536828.8,61870,16.25,73982.3,-0.07,-30.45,-32.69,0,*53
1508536830.0,61871,16.25,73980.0,-0.07,-30.11,-32.51,0,*58
1508536831.24,61872,16.25,73980.0,-0.05,-30.05,-32.35,0,*5E
1508536832.44,61873,16.25,73982.3,-0.07,-30.23,-32.51,0,*5B
1508536833.68,61874,16.25,73978.8,-0.05,-30.05,-32.35,0,*58
1508536834.87,61875,16.25,73980.3,-0.07,-30.27,-32.57,0,*5F
1508536836.07,61876,16.25,73978.8,-0.07,-30.45,-32.69,0,*55
1508536837.31,61877,16.25,73980.3,-0.05,-30.39,-32.69,0,*5D
1508536838.55,61878,16.25,73980.5,-0.05,-30.39,-32.69,0,*52
1508536839.77,61879,16.25,73980.5,-0.07,-30.45,-32.85,0,*58
1508536841.04,61880,16.25,73982.5,-0.05,-30.51,-32.85,0,*59
1508536842.26,61881,16.25,73982.0,-0.07,-30.77,-32.91,0,*5B
1508536843.53,61882,16.25,73980.3,-0.05,-30.51,-32.63,0,*53
1508536844.77,61883,16.25,73982.5,-0.07,-30.61,-32.85,0,*5B
1508536845.99,61884,16.25,73982.3,-0.05,-30.33,-32.51,0,*50
1508536847.21,61885,16.25,73982.5,-0.07,-30.45,-32.75,0,*54
1508536848.46,61886,16.25,73982.3,-0.05,-29.89,-32.13,0,*5D
1508536849.71,61887,16.25,73978.8,-0.05,-30.01,-32.39,0,*5C
1508536850.9,61888,16.25,73984.0,-0.07,-30.27,-32.57,0,*5D
1508536852.12,61889,16.25,73982.3,-0.05,-30.33,-32.51,0,*5D
1508536853.32,61890,16.25,73982.5,-0.07,-30.11,-32.35,0,*55
1508536854.54,61891,16.25,73982.0,-0.07,-30.05,-32.23,0,*56
1508536855.8,61892,16.25,73984.3,-0.05,-30.05,-32.29,0,*5D
1508536857.07,61893,16.25,73978.0,-0.05,-30.01,-32.19,0,*5B
1508536858.27,61894,16.25,73982.0,-0.07,-30.11,-32.39,0,*5D
1508536859.51,61895,16.25,73980.8,-0.05,-30.05,-32.35,0,*57
1508536860.75,61896,16.25,73982.3,-0.05,-30.05,-32.35,0,*54
1508536862.02,61897,16.25,73980.8,-0.05,-30.05,-32.45,0,*52
1508536863.22,61898,16.25,73978.8,-0.07,-30.11,-32.51,0,*5F
1508536864.44,61899,16.25,73980.0,-0.05,-30.23,-32.51,0,*5D
1508536865.69,61900,16.25,73980.8,-0.05,-30.17,-32.51,0,*5B
1508536866.96,61901,16.25,73984.5,-0.05,-30.17,-32.45,0,*5F
1508536868.23,61902,16.25,73982.0,-0.05,-30.39,-32.63,0,*54
1508536869.49,61903,16.25,73982.5,-0.05,-30.55,-32.79,0,*54
1508536870.73,61904,16.25,73980.0,-0.03,-30.55,-32.79,0,*55
1508536871.94,61905,16.25,73980.8,-0.03,-30.23,-32.63,0,*5E
1508536873.21,61906,16.25,73982.8,-0.05,-30.51,-32.79,0,*55
1508536874.45,61907,16.25,73982.8,-0.03,-30.39,-32.63,0,*57
1508536875.64,61908,16.25,73984.5,-0.03,-30.33,-32.51,0,*53
1508536876.87,61909,16.25,73984.8,-0.05,-30.33,-32.51,0,*54
1508536878.11,61910,16.25,73984.5,-0.03,-30.17,-32.45,0,*59
1508536879.33,61911,16.25,73982.5,-0.03,-30.23,-32.45,0,*5F
1508536880.55,61912,16.25,73982.3,-0.05,-30.23,-32.51,0,*5F
1508536881.77,61913,16.25,73982.8,-0.05,-30.23,-32.51,0,*5E
1508536882.99,61914,16.25,73982.0,-0.05,-30.33,-32.51,0,*58
1508536884.23,61915,16.25,73982.0,-0.03,-30.55,-32.79,0,*55
1508536885.5,61916,16.25,73982.3,-0.05,-30.55,-32.79,0,*50
1508536886.76,61917,16.25,73984.0,-0.05,-30.39,-32.63,0,*50
1508536888.0,61918,16.25,73980.0,-0.05,-30.39,-32.69,0,*55
1508536889.24,61919,16.25,73980.8,-0.05,-30.39,-32.69,0,*54
1508536890.51,61920,16.25,73978.3,-0.05,-30.55,-32.79,0,*55
1508536891.75,61921,16.25,73980.3,-0.05,-30.55,-32.91,0,*52
1508536893.01,61922,16.25,73980.8,-0.05,-30.89,-32.97,0,*56
1508536894.26,61923,16.25,73978.3,-0.05,-30.77,-33.03,0,*5A
1508536895.53,61924,16.25,73978.0,-0.05,-30.73,-32.97,0,*55
1508536896.77,61925,16.25,73980.0,-0.05,-30.67,-32.79,0,*51
1508536898.02,61926,16.25,73980.3,-0.07,-30.55,-32.85,0,*52
1508536899.24,61927,16.25,73980.3,-0.07,-30.61,-32.69,0,*56
1508536900.46,61928,16.25,73982.0,-0.07,-30.73,-33.03,0,*57
1508536901.68,61929,16.25,73978.8,-0.07,-30.73,-32.91,0,*5C
1508536902.9,61930,16.25,73978.5,-0.07,-30.73,-32.91,0,*54
1508536904.13,61931,16.25,73976.0,-0.07,-30.77,-32.91,0,*51
1508536905.35,61932,16.25,73976.8,-0.07,-30.83,-33.09,0,*59
1508536906.57,61933,16.25,73976.3,-0.09,-31.01,-33.21,0,*57
1508536907.79,61934,16.25,73976.5,-0.09,-31.05,-33.21,0,*54
1508536909.04,61935,16.25,73976.5,-0.09,-30.83,-33.09,0,*50
1508536910.28,61936,16.25,73978.8,-0.11,-30.77,-32.97,0,*67
1508536911.51,61937,16.25,73976.5,-0.11,-30.83,-33.09,0,*6B
1508536912.76,61938,16.25,73978.5,-0.11,-30.77,-32.97,0,*69
1508536913.96,61939,16.25,73976.0,-0.11,-30.67,-32.91,0,*6F
1508536915.23,61940,16.25,73976.8,-0.09,-30.77,-32.97,0,*5F
1508536916.45,61941,16.25,73976.8,-0.11,-31.01,-33.09,0,*61
1508536917.65,61942,16.25,73978.0,-0.11,-30.67,-32.91,0,*63
1508536918.88,61943,16.25,73980.0,-0.11,-30.77,-32.91,0,*63
1508536920.11,61944,16.25,73978.0,-0.11,-30.83,-33.09,0,*6F
1508536921.33,61945,16.25,73978.5,-0.11,-30.83,-32.97,0,*68
1508536922.56,61946,16.25,73980.0,-0.11,-30.77,-32.91,0,*66
1508536923.76,61947,16.25,73978.5,-0.11,-30.67,-32.91,0,*66
1508536924.96,61948,16.25,73978.5,-0.11,-30.67,-32.91,0,*69
1508536926.19,61949,16.25,73976.3,-0.11,-30.77,-32.91,0,*69
1508536927.47,61950,16.25,73976.5,-0.13,-30.51,-32.79,0,*61
1508536928.66,61951,16.25,73980.3,-0.11,-30.27,-32.57,0,*6F
1508536929.89,61952,16.25,73982.5,-0.11,-30.67,-32.79,0,*64
1508536931.14,61953,16.25,73980.8,-0.11,-30.61,-32.79,0,*63
1508536932.39,61954,16.25,73978.3,-0.11,-30.61,-32.79,0,*64
1508536933.61,61955,16.25,73980.5,-0.11,-30.45,-32.75,0,*6F
1508536934.83,61956,16.25,73980.3,-0.11,-30.33,-32.63,0,*6A
1508536936.08,61957,16.25,73980.5,-0.11,-30.89,-33.09,0,*67
1508536937.33,61958,16.25,73978.8,-0.11,-30.89,-33.09,0,*68
1508536938.58,61959,16.25,73980.3,-0.11,-30.61,-32.79,0,*69
1508536939.86,61960,16.25,73982.8,-0.13,-30.73,-32.97,0,*62
1508536941.13,61961,16.25,73982.8,-0.13,-30.73,-32.97,0,*63
1508536942.41,61962,16.25,73982.0,-0.13,-30.73,-32.97,0,*60
1508536943.64,61963,16.25,73982.0,-0.13,-30.23,-32.51,0,*6E
1508536944.91,61964,16.25,73980.5,-0.13,-30.39,-32.63,0,*63
1508536946.18,61965,16.25,73980.3,-0.13,-30.39,-32.63,0,*62
1508536947.45,61966,16.25,73982.8,-0.13,-30.39,-32.63,0,*61
1508536948.7,61967,16.25,73976.0,-0.11,-30.61,-32.79,0,*64
1508536949.93,61968,16.25,73980.3,-0.11,-30.67,-32.79,0,*6D
1508536951.2,61969,16.25,73982.8,-0.13,-30.73,-32.97,0,*6B
1508536952.46,61970,16.25,73980.0,-0.13,-30.95,-33.15,0,*60
1508536953.68,61971,16.25,73980.3,-0.13,-31.05,-33.21,0,*6E
1508536954.91,61972,16.25,73980.3,-0.15,-30.89,-33.03,0,*6E
1508536956.18,61973,16.25,73982.5,-0.13,-30.55,-32.85,0,*67
1508536957.43,61974,16.25,73986.0,-0.13,-30.33,-32.63,0,*68
1508536958.69,61975,16.25,73980.8,-0.13,-30.39,-32.51,0,*62
1508536959.96,61976,16.25,73982.0,-0.13,-30.51,-32.79,0,*65
1508536961.21,61977,16.25,73982.5,-0.13,-30.39,-32.69,0,*6B
1508536962.49,61978,16.25,73980.0,-0.13,-30.55,-32.85,0,*6C
1508536963.74,61979,16.25,73982.5,-0.11,-30.61,-32.79,0,*6B
1508536965.02,61980,16.25,73980.3,-0.13,-30.73,-32.85,0,*6F
1508536966.3,61981,16.25,73982.3,-0.13,-30.73,-32.85,0,*6E
1508536967.56,61982,16.25,73982.3,-0.13,-30.67,-32.79,0,*6B
1508536968.81,61983,16.25,73982.5,-0.13,-30.39,-32.69,0,*60
1508536970.06,61984,16.25,73980.8,-0.13,-30.39,-32.69,0,*67
1508536971.31,61985,16.25,73980.3,-0.13,-30.33,-32.45,0,*62
1508536972.57,61986,16.25,73980.5,-0.13,-30.17,-32.35,0,*60
1508536973.85,61987,16.25,73978.8,-0.13,-30.01,-32.19,0,*68
1508536975.07,61988,16.25,73980.3,-0.11,-30.01,-32.23,0,*6C
1508536976.29,61989,16.25,73982.5,-0.11,-30.11,-32.29,0,*66
1508536977.57,61990,16.25,73978.8,-0.13,-30.17,-32.45,0,*60
1508536978.8,61991,16.25,73980.3,-0.13,-30.23,-32.35,0,*61
1508536980.03,61992,16.25,73982.3,-0.11,-29.83,-32.07,0,*63
1508536981.26,61993,16.25,73978.5,-0.11,-29.39,-31.67,0,*66
1508536982.5,61994,16.25,73976.3,-0.11,-29.13,-31.57,0,*6A
1508536983.75,61995,16.25,73976.3,-0.09,-29.79,-31.95,0,*50
1508536984.98,61996,16.25,73976.0,-0.07,-29.57,-31.85,0,*50
1508536986.2,61997,16.25,73972.5,-0.07,-29.01,-31.29,0,*54
1508536987.41,61998,16.25,73974.0,-0.07,-28.53,-30.83,0,*5C
1508536988.64,61999,16.25,73972.0,-0.07,-28.53,-30.95,0,*5A
1508536989.89,62000,16.25,73972.3,-0.03,-28.91,-31.23,0,*56
1508536991.17,62001,16.25,73970.5,-0.01,-29.39,-31.51,0,*53
1508536992.39,62002,16.25,73968.8,-0.01,-28.97,-31.33,0,*51
1508536993.61,62003,16.25,73966.5,-0.01,-28.97,-31.33,0,*50
1508536994.83,62004,16.25,73966.0,-0.01,-29.57,-31.67,0,*5B
1508536996.08,62005,16.25,73970.8,0.05,-29.89,-32.07,0,*75
1508536997.26,62006,16.25,73970.5,0.01,-29.95,-32.13,0,*7A
1508536998.49,62007,16.25,73968.5,0.01,-29.83,-31.95,0,*71
1508536999.69,62008,16.25,73970.8,0.05,-30.05,-32.23,0,*72
1508537000.88,62009,16.25,73970.3,0.05,-30.23,-32.39,0,*7C
1508537002.06,62010,16.25,73970.8,0.01,-30.11,-32.35,0,*7D
1508537003.28,62011,16.25,73974.8,0.01,-30.17,-32.39,0,*76
1508537004.5,62012,16.25,73972.8,0.05,-29.95,-32.07,0,*7E
1508537005.71,62013,16.25,73976.0,0.01,-30.01,-32.13,0,*7B
1508537006.9,62014,16.25,73974.5,0.01,-29.95,-32.13,0,*79
1508537008.1,62015,16.25,73972.8,0.05,-30.39,-32.57,0,*72
1508537009.31,62016,16.25,73974.8,0.05,-30.17,-32.35,0,*79
1508537010.5,62017,16.25,73970.3,0.05,-30.27,-32.51,0,*79
1508537011.71,62018,16.25,73972.0,0.01,-30.45,-32.63,0,*77
1508537012.92,62019,16.25,73974.0,0.01,-30.11,-32.29,0,*79
1508537014.13,62020,16.25,73970.8,0.01,-30.33,-32.45,0,*79
1508537015.32,62021,16.25,73968.3,0.01,-30.27,-32.39,0,*76
1508537016.52,62022,16.25,73972.3,0.01,-30.51,-32.57,0,*7C
1508537017.76,62023,16.25,73970.3,0.01,-30.51,-32.63,0,*7A
1508537018.97,62024,16.25,73974.3,0.01,-30.67,-32.79,0,*73
1508537020.19,62025,16.25,73974.3,0.01,-30.67,-32.79,0,*72
1508537021.41,62026,16.25,73974.0,-0.03,-30.73,-33.03,0,*57
1508537022.65,62027,16.25,73974.3,-0.01,-30.73,-32.91,0,*5E
1508537023.87,62028,16.25,73968.8,-0.03,-30.89,-33.03,0,*5C
1508537025.07,62029,16.25,73974.8,-0.03,-30.83,-32.91,0,*5D
1508537026.29,62030,16.19,73970.3,-0.03,-30.67,-32.63,0,*52
1508537027.51,62031,16.25,73972.8,-0.03,-30.51,-32.69,0,*5C
1508537028.72,62032,16.25,73972.8,-0.03,-30.33,-32.45,0,*55
1508537029.94,62033,16.25,73972.3,-0.03,-30.55,-32.69,0,*5A
1508537031.16,62034,16.25,73976.5,-0.03,-30.33,-32.45,0,*53
1508537032.4,62035,16.25,73972.5,-0.03,-30.01,-32.19,0,*5A
1508537033.61,62036,16.19,73970.5,-0.03,-30.05,-32.13,0,*57
1508537034.83,62037,16.25,73974.5,-0.03,-30.27,-32.45,0,*55
1508537036.05,62038,16.25,73976.5,-0.03,-30.39,-32.69,0,*5B
1508537037.26,62039,16.25,73976.5,-0.03,-30.33,-32.45,0,*5E
1508537038.48,62040,16.25,73974.3,-0.01,-30.33,-32.57,0,*51
1508537039.69,62041,16.25,73974.0,-0.03,-30.39,-32.69,0,*55
1508537040.91,62042,16.25,73978.5,-0.03,-30.17,-32.35,0,*53
1508537042.15,62043,16.25,73976.5,-0.01,-30.11,-32.29,0,*5B
1508537043.36,62044,16.25,73976.5,-0.03,-30.23,-32.45,0,*55
1508537044.55,62045,16.25,73972.5,-0.03,-30.33,-32.57,0,*56
1508537045.79,62046,16.25,73974.5,-0.03,-30.39,-32.63,0,*58
1508537047.0,62047,16.25,73978.5,-0.03,-30.33,-32.63,0,*53
1508537048.23,62048,16.25,73976.8,-0.03,-30.39,-32.63,0,*56
1508537049.47,62049,16.25,73978.5,-0.03,-30.55,-32.85,0,*55
1508537050.72,62050,16.25,73976.3,-0.01,-30.67,-32.97,0,*5D
1508537051.96,62051,16.25,73978.8,-0.03,-30.73,-32.97,0,*5B
1508537053.2,62052,16.25,73980.8,-0.03,-30.73,-32.97,0,*58
1508537054.44,62053,16.25,73976.5,-0.05,-30.67,-32.97,0,*5A
1508537055.66,62054,16.25,73978.5,-0.03,-30.67,-32.85,0,*58
1508537056.89,62055,16.25,73978.8,-0.03,-30.67,-32.85,0,*59
1508537058.13,62056,16.25,73978.8,-0.03,-30.51,-32.79,0,*5C
1508537059.32,62057,16.25,73978.8,-0.03,-30.33,-32.69,0,*58
1508537060.57,62058,16.25,73976.3,-0.05,-30.39,-32.69,0,*5B
1508537061.81,62059,16.25,73978.3,-0.05,-30.33,-32.63,0,*5A
1508537063.05,62060,16.25,73978.8,-0.05,-30.33,-32.63,0,*50
1508537064.31,62061,16.25,73982.0,-0.05,-30.55,-32.63,0,*51
1508537065.58,62062,16.25,73982.8,-0.05,-30.51,-32.63,0,*56
1508537066.79,62063,16.25,73978.0,-0.03,-30.33,-32.63,0,*55
1508537068.02,62064,16.25,73976.3,-0.03,-30.17,-32.51,0,*55
1508537069.23,62065,16.19,73976.5,-0.03,-30.55,-32.69,0,*59
1508537070.48,62066,16.25,73976.5,-0.03,-30.73,-32.85,0,*5C
1508537071.72,62067,16.25,73978.0,-0.05,-30.67,-32.97,0,*5D
1508537072.99,62068,16.25,73978.8,-0.05,-30.73,-32.79,0,*57
1508537074.24,62069,16.25,73976.3,-0.05,-30.73,-33.03,0,*5A
1508537075.46,62070,16.25,73978.5,-0.07,-30.77,-32.91,0,*5E
1508537076.73,62071,16.25,73978.5,-0.05,-30.73,-32.79,0,*5F
1508537078.0,62072,16.25,73978.5,-0.05,-30.73,-32.97,0,*5C
1508537079.27,62073,16.25,73976.3,-0.05,-30.77,-32.97,0,*59
1508537080.49,62074,16.25,73978.3,-0.07,-30.73,-32.91,0,*5E
1508537081.71,62075,16.19,73976.5,-0.07,-30.73,-32.91,0,*5F
1508537082.93,62076,16.25,73978.0,-0.07,-30.73,-33.03,0,*56
1508537084.15,62077,16.19,73974.3,-0.07,-30.61,-32.91,0,*5E
1508537085.4,62078,16.25,73978.5,-0.09,-30.67,-32.79,0,*5F
1508537086.66,62079,16.25,73980.3,-0.09,-30.67,-32.79,0,*5E
1508537087.93,62080,16.25,73980.0,-0.09,-30.61,-32.79,0,*5E
1508537089.18,62081,16.25,73980.3,-0.09,-30.89,-32.91,0,*5F
1508537090.43,62082,16.25,73980.5,-0.09,-30.83,-32.79,0,*50
1508537091.7,62083,16.19,73972.5,-0.09,-30.51,-32.63,0,*55
1508537092.97,62084,16.25,73976.5,-0.09,-30.51,-32.79,0,*59
1508537094.22,62085,16.19,73974.3,-0.07,-30.61,-32.75,0,*59
1508537095.47,62086,16.25,73976.8,-0.07,-30.77,-32.85,0,*52
1508537096.74,62087,16.25,73978.8,-0.05,-30.73,-32.79,0,*56
1508537097.96,62088,16.25,73978.3,-0.07,-30.39,-32.69,0,*54
1508537099.16,62089,16.25,73976.5,-0.07,-30.23,-32.39,0,*5B
1508537100.4,62090,16.25,73978.0,-0.07,-30.55,-32.75,0,*5A
1508537101.64,62091,16.25,73978.8,-0.07,-30.55,-32.75,0,*5B
1508537102.89,62092,16.25,73976.3,-0.07,-30.77,-32.85,0,*57
1508537104.11,62093,16.25,73978.0,-0.07,-30.77,-33.03,0,*59
1508537105.34,62094,16.25,73978.5,-0.07,-30.83,-33.09,0,*5F
1508537106.56,62095,16.25,73978.5,-0.11,-30.89,-33.15,0,*6E
1508537107.78,62096,16.25,73976.5,-0.11,-30.61,-32.91,0,*66
1508537109.01,62097,16.25,73976.5,-0.11,-30.83,-32.97,0,*6D
1508537110.25,62098,16.25,73978.3,-0.09,-31.01,-33.09,0,*56
1508537111.47,62099,16.25,73978.3,-0.11,-30.89,-33.15,0,*62
1508537112.68,62100,16.25,73978.3,-0.11,-30.67,-32.91,0,*6E
1508537113.93,62101,16.25,73978.0,-0.09,-30.77,-32.91,0,*57
1508537115.15,62102,16.19,73978.5,-0.11,-30.67,-32.97,0,*6A
1508537116.35,62103,16.19,73978.8,-0.11,-30.67,-32.91,0,*6D
1508537117.58,62104,16.25,73978.3,-0.11,-30.77,-32.91,0,*6B
1508537118.8,62105,16.25,73978.5,-0.11,-30.83,-32.97,0,*67
1508537120.03,62106,16.25,73982.0,-0.11,-30.83,-33.09,0,*62
1508537121.28,62107,16.19,73978.5,-0.11,-30.89,-33.09,0,*69
1508537122.53,62108,16.19,73978.0,-0.09,-30.83,-33.09,0,*55
1508537123.76,62109,16.19,73978.8,-0.11,-30.77,-32.91,0,*66
1508537125.0,62110,16.25,73976.8,-0.11,-30.89,-32.97,0,*69
1508537126.2,62111,16.25,73982.3,-0.15,-31.05,-33.15,0,*62
1508537127.45,62112,16.25,73982.3,-0.13,-30.95,-33.15,0,*6F
1508537128.68,62113,16.19,73978.8,-0.13,-31.05,-33.15,0,*66
1508537129.93,62114,16.25,73982.8,-0.13,-30.95,-33.15,0,*69
1508537131.16,62115,16.25,73980.0,-0.15,-30.89,-33.03,0,*64
1508537132.38,62116,16.25,73980.8,-0.15,-30.83,-32.97,0,*61
1508537133.66,62117,16.25,73980.3,-0.13,-30.55,-32.85,0,*6E
1508537134.91,62118,16.25,73980.5,-0.13,-30.51,-32.69,0,*67
1508537136.18,62119,16.19,73976.3,-0.13,-30.39,-32.63,0,*62
1508537137.44,62120,16.19,73976.3,-0.13,-30.51,-32.69,0,*6C
1508537138.69,62121,16.25,73978.8,-0.13,-30.51,-32.69,0,*6D
1508537139.95,62122,16.19,73978.8,-0.15,-30.73,-32.85,0,*6A
1508537141.2,62123,16.25,73982.3,-0.13,-30.95,-33.03,0,*6A
1508537142.41,62124,16.19,73978.3,-0.15,-30.83,-33.03,0,*6C
1508537143.64,62125,16.25,73980.8,-0.15,-30.67,-32.85,0,*68
1508537144.89,62126,16.25,73980.3,-0.15,-30.73,-32.97,0,*6D
1508537146.14,62127,16.19,73982.0,-0.13,-30.83,-32.97,0,*65
1508537147.37,62128,16.25,73982.0,-0.15,-30.89,-33.03,0,*6A
1508537148.59,62129,16.25,73982.5,-0.15,-30.83,-32.97,0,*6D
1508537149.82,62130,16.25,73982.0,-0.15,-30.89,-33.15,0,*64
1508537151.05,62131,16.25,73982.5,-0.15,-30.83,-32.97,0,*64
1508537152.27,62132,16.25,73980.5,-0.15,-30.89,-33.03,0,*61
1508537153.5,62133,16.19,73980.0,-0.15,-30.73,-33.03,0,*65
1508537154.76,62134,16.25,73982.8,-0.17,-30.77,-33.03,0,*64
1508537155.98,62135,16.25,73980.5,-0.15,-30.51,-32.69,0,*6E
1508537157.21,62136,16.25,73984.8,-0.15,-30.39,-32.69,0,*63
1508537158.43,62137,16.25,73982.0,-0.15,-30.33,-32.63,0,*62
1508537159.68,62138,16.25,73986.5,-0.15,-30.39,-32.63,0,*67
1508537160.93,62139,16.25,73984.5,-0.17,-30.45,-32.75,0,*68
1508537162.21,62140,16.19,73980.3,-0.17,-30.55,-32.85,0,*68
1508537163.46,62141,16.19,73980.5,-0.15,-30.55,-32.79,0,*68
1508537164.71,62142,16.25,73984.0,-0.15,-30.51,-32.85,0,*6C
1508537165.91,62143,16.25,73984.0,-0.15,-30.83,-33.03,0,*6D
1508537167.14,62144,16.25,73980.5,-0.15,-30.67,-32.97,0,*6C
1508537168.39,62145,16.25,73980.3,-0.15,-30.73,-32.97,0,*68
1508537169.61,62146,16.25,73984.8,-0.15,-30.73,-33.03,0,*67
1508537170.9,62147,16.19,73982.5,-0.17,-30.89,-33.09,0,*6B
1508537172.16,62148,16.25,73984.0,-0.17,-30.95,-33.21,0,*63
1508537173.41,62149,16.25,73982.0,-0.17,-31.01,-33.27,0,*68
1508537174.7,62150,16.19,73982.3,-0.17,-31.11,-33.31,0,*66
1508537175.96,62151,16.19,73980.5,-0.17,-31.01,-33.27,0,*61
1508537177.25,62152,16.19,73982.8,-0.17,-31.11,-33.31,0,*64
1508537178.54,62153,16.19,73980.3,-0.17,-31.11,-33.27,0,*62
1508537179.76,62154,16.19,73982.0,-0.21,-30.89,-33.03,0,*66
1508537181.04,62155,16.25,73986.0,-0.17,-30.61,-33.09,0,*6E
1508537182.3,62156,16.19,73980.3,-0.17,-30.95,-33.21,0,*6C
1508537183.52,62157,16.25,73982.8,-0.21,-30.95,-33.21,0,*68
1508537184.74,62158,16.19,73982.0,-0.21,-30.95,-33.21,0,*67
1508537185.96,62159,16.25,73984.3,-0.21,-30.95,-33.21,0,*66
1508537187.21,62160,16.19,73982.0,-0.21,-30.55,-32.85,0,*6F
1508537188.43,62161,16.25,73982.8,-0.21,-30.45,-32.75,0,*60
1508537189.67,62162,16.19,73980.5,-0.21,-30.55,-32.85,0,*6D
1508537190.9,62163,16.19,73980.5,-0.21,-30.77,-33.03,0,*63
1508537192.12,62164,16.19,73980.0,-0.21,-30.77,-32.91,0,*6E
1508537193.37,62165,16.19,73980.8,-0.21,-30.77,-33.09,0,*6F
1508537194.57,62166,16.19,73982.8,-0.21,-30.27,-32.39,0,*6B
1508537195.78,62167,16.19,73978.8,-0.21,-30.27,-32.51,0,*64
1508537197.01,62168,16.25,73982.8,-0.17,-30.45,-32.69,0,*61
1508537198.25,62169,16.25,73982.3,-0.17,-30.27,-32.39,0,*61
1508537199.44,62170,16.19,73982.8,-0.21,-30.27,-32.57,0,*64
1508537200.64,62171,16.25,73982.0,-0.21,-30.45,-32.69,0,*6C
1508537201.87,62172,16.19,73982.3,-0.17,-30.11,-32.35,0,*62
1508537203.1,62173,16.19,73978.8,-0.17,-30.23,-32.35,0,*62
1508537204.32,62174,16.19,73980.8,-0.17,-30.23,-32.35,0,*65
1508537205.55,62175,16.25,73984.5,-0.17,-30.23,-32.39,0,*68
1508537206.78,62176,16.19,73980.5,-0.17,-30.23,-32.35,0,*67
1508537208.03,62177,16.25,73982.5,-0.15,-30.05,-32.19,0,*6E
1508537209.28,62178,16.25,73976.8,-0.15,-30.05,-32.29,0,*62
1508537210.5,62179,16.19,73976.3,-0.15,-30.23,-32.29,0,*67
1508537211.77,62180,16.19,73976.3,-0.13,-30.01,-32.29,0,*67
1508537213.02,62181,16.19,73978.8,-0.13,-30.01,-32.13,0,*6F
1508537214.28,62182,16.19,73976.8,-0.15,-30.01,-32.19,0,*60
1508537215.53,62183,16.25,73980.8,-0.13,-29.89,-32.13,0,*65
1508537216.81,62184,16.25,73976.5,-0.13,-30.17,-32.29,0,*64
1508537218.04,62185,16.25,73976.5,-0.11,-29.95,-31.95,0,*61
1508537219.27,62186,16.19,73976.3,-0.11,-29.83,-32.07,0,*6D
1508537220.52,62187,16.19,73974.5,-0.11,-29.73,-31.85,0,*6A
1508537221.72,62188,16.19,73972.3,-0.11,-29.83,-32.13,0,*66
1508537222.92,62189,16.19,73974.8,-0.11,-30.11,-32.13,0,*64
1508537224.14,62190,16.19,73972.5,-0.11,-30.45,-32.63,0,*6A
1508537225.35,62191,16.19,73972.3,-0.11,-30.45,-32.63,0,*6B
1508537226.58,62192,16.25,73976.0,-0.11,-30.67,-32.79,0,*63
1508537227.79,62193,16.19,73970.3,-0.11,-30.83,-32.91,0,*6E
1508537229.01,62194,16.19,73974.0,-0.11,-30.45,-32.45,0,*6A
1508537230.2,62195,16.19,73970.0,-0.11,-30.27,-32.57,0,*6C
1508537231.42,62196,16.19,73974.0,-0.09,-30.33,-32.57,0,*53
1508537232.67,62197,16.25,73972.3,-0.11,-30.61,-32.79,0,*60
1508537233.94,62198,16.25,73970.8,-0.13,-30.51,-32.63,0,*65
1508537235.19,62199,16.25,73972.0,-0.11,-30.51,-32.79,0,*6D
1508537236.45,62200,16.19,73968.8,-0.13,-30.67,-32.85,0,*6A
1508537237.7,62201,16.19,73968.8,-0.11,-30.77,-32.79,0,*6B
1508537238.92,62202,16.25,73972.8,-0.11,-30.61,-32.91,0,*69
1508537240.2,62203,16.19,73974.0,-0.13,-30.55,-32.79,0,*6B
1508537241.46,62204,16.19,73974.0,-0.13,-30.67,-32.85,0,*6E
1508537242.68,62205,16.25,73972.3,-0.11,-30.45,-32.75,0,*62
1508537243.93,62206,16.19,73970.5,-0.11,-30.61,-32.79,0,*6B
1508537245.21,62207,16.19,73974.5,-0.13,-30.73,-32.85,0,*68
1508537246.47,62208,16.19,73972.3,-0.13,-30.67,-32.85,0,*62
1508537247.75,62209,16.19,73972.3,-0.13,-30.73,-32.85,0,*66
1508537249.0,62210,16.25,73974.8,-0.15,-30.73,-32.97,0,*6B
1508537250.25,62211,16.19,73972.0,-0.15,-30.55,-32.79,0,*6E
1508537251.53,62212,16.19,73974.0,-0.13,-30.89,-32.85,0,*69
1508537252.78,62213,16.19,73972.3,-0.15,-30.73,-32.97,0,*68
1508537254.0,62214,16.19,73974.3,-0.15,-30.33,-32.63,0,*60
1508537255.23,62215,16.19,73972.3,-0.15,-30.51,-32.69,0,*6F
1508537256.5,62216,16.19,73972.3,-0.13,-30.55,-32.63,0,*64
1508537257.75,62217,16.19,73974.8,-0.13,-30.33,-32.63,0,*65
1508537259.0,62218,16.19,73974.0,-0.15,-30.55,-32.85,0,*64
1508537260.26,62219,16.19,73972.3,-0.13,-30.67,-32.85,0,*62
1508537261.49,62220,16.19,73970.8,-0.15,-30.67,-32.79,0,*6D
1508537262.77,62221,16.19,73974.5,-0.13,-30.55,-32.79,0,*6B
1508537263.99,62222,16.19,73972.8,-0.15,-30.33,-32.63,0,*65
1508537265.24,62223,16.19,73978.5,-0.13,-30.33,-32.63,0,*62
1508537266.47,62224,16.19,73976.5,-0.13,-30.33,-32.69,0,*6F
1508537267.75,62225,16.19,73972.0,-0.13,-30.55,-32.79,0,*6F
1508537268.99,62226,16.19,73974.3,-0.15,-30.55,-32.85,0,*69
1508537270.23,62227,16.19,73976.0,-0.15,-30.67,-32.85,0,*69
1508537271.45,62228,16.19,73978.5,-0.15,-30.51,-32.69,0,*61
1508537272.71,62229,16.19,73978.8,-0.13,-30.51,-32.69,0,*66
1508537273.97,62230,16.19,73976.3,-0.13,-30.67,-32.85,0,*69
1508537275.19,62231,16.19,73980.5,-0.15,-30.39,-32.69,0,*67
1508537276.43,62232,16.19,73982.0,-0.15,-30.39,-32.63,0,*6E
1508537277.64,62233,16.19,73978.5,-0.15,-30.33,-32.51,0,*64
1508537278.86,62234,16.19,73982.3,-0.15,-30.39,-32.69,0,*62
1508537280.07,62235,16.19,73976.0,-0.15,-30.33,-32.51,0,*62
1508537281.27,62236,16.19,73980.8,-0.15,-30.33,-32.51,0,*61
1508537282.54,62237,16.19,73980.5,-0.13,-30.39,-32.63,0,*6D
1508537283.8,62238,16.19,73980.3,-0.13,-30.17,-32.51,0,*6F
1508537285.03,62239,16.19,73980.8,-0.15,-30.33,-32.63,0,*6F
1508537286.28,62240,16.19,73980.0,-0.13,-30.33,-32.63,0,*67
1508537287.53,62241,16.19,73976.5,-0.13,-30.39,-32.69,0,*66
1508537288.75,62242,16.19,73982.8,-0.15,-30.23,-32.45,0,*66
1508537290.0,62243,16.19,73978.5,-0.13,-30.23,-32.45,0,*61
1508537291.25,62244,16.19,73976.0,-0.11,-30.17,-32.45,0,*63
1508537292.5,62245,16.19,73978.3,-0.13,-30.39,-32.69,0,*62
1508537293.74,62246,16.19,73978.5,-0.13,-30.33,-32.51,0,*60
1508537294.94,62247,16.19,73976.3,-0.15,-30.33,-32.51,0,*67